Regional Weather Roundup
Issued by NWS

Home | Current Version | Previous Version | Text Only | Print | Product List | Glossary Off
Versions: 1 2 3 4 5 6 7 8 9 10 11 12 13 14 15 16 17 18 19 20 21 22 23 24 25 26 27 28 29 30 31 32 33 34 35 36 37 38 39 40 41 42 43 44 45 46 47 48 49 50

000
ASUS43 KMPX 271710
RWRMN
WEATHER ROUNDUP FOR MINNESOTA
NATIONAL WEATHER SERVICE TWIN CITIES/CHANHASSEN MN
1100 AM CST SAT DEC 27 2014


NOTE: "FAIR" INDICATES FEW OR NO CLOUDS BELOW 12,000 FEET WITH NO
SIGNIFICANT WEATHER AND/OR OBSTRUCTIONS TO VISIBILITY. N/A MEANS
CURRENT SKY AND/OR WEATHER CONDITIONS ARE NOT AVAILABLE.

MNZ060>063-068>070-271800-
   Twin Cities Metro

CITY           SKY/WX    TMP DP  RH WIND       PRES   REMARKS
TWIN CITIES    CLOUDY    24  17  74 NW14      30.09R WCI  12
ST PAUL        CLOUDY    24  18  77 NW14      30.10R WCI  12
CRYSTAL        CLOUDY    24  17  74 NW10      30.08R WCI  14
BLAINE         CLOUDY    25  21  86 NW10      30.08R WCI  15
LAKEVILLE      CLOUDY    21  18  86 NW12      30.08R WCI   9
EDEN PRAIRIE   CLOUDY    24  17  74 W10       30.08R WCI  14
SOUTH ST PAUL  CLOUDY    25  19  78 NW9       30.08R WCI  15
LAKE ELMO      CLOUDY    25  19  80 NW12      30.08R WCI  14
$$
MNZ001>005-007-008-013>017-022>024-027-028-271800-
   Northwest Minnesota

CITY           SKY/WX    TMP DP  RH WIND       PRES   REMARKS
BEMIDJI        PTSUNNY   12   6  76 SW3       30.04F
HALLOCK        LGT SNOW  10   7  85 S9        30.06S WCI  -2
ROSEAU         CLOUDY    10   3  72 SW9       30.03F WCI  -2
WARROAD        CLOUDY     9   3  78 SW9       30.02F WCI  -5
THIEF RVR FALL CLOUDY     9   5  85 S8        30.06F WCI  -4
CROOKSTON      PTSUNNY   10   7  85 S10       30.10F WCI  -3
FOSSTON        FLURRIES   7   5  92 S9        30.05F WCI  -7
DETROIT LAKES  MOSUNNY   10  10 100 SW5       30.08F WCI   2
MOORHEAD       CLOUDY    12  10  92 S9        30.11F WCI   0
PARK RAPIDS    CLOUDY    15   6  67 W6        30.05F WCI   6
MAHNOMEN       CLOUDY     8   6  89 S10       30.07F WCI  -6
$$
MNZ006-009>011-018-025>026-271800-
   North Central Minnesota

CITY           SKY/WX    TMP DP  RH WIND       PRES   REMARKS
BAUDETTE       CLOUDY    10   5  80 S7        30.02F WCI  -1
FLAG ISLAND    FLURRIES   9   5  85 S12       30.00F WCI  -6
INTL FALLS     PTSUNNY   12   5  73 VRB6      30.02F WCI   3
WASKISH        PTSUNNY   12   9  85 CALM      30.04F
BIG FORK       SUNNY     16   9  73 W5        30.03F WCI   9
LONGVILLE      SUNNY     16   9  73 W3        30.05F
GRAND RAPIDS   MOSUNNY   16   9  73 W8        30.02F WCI   5
CRANE LAKE     FLURRIES  10   5  79 CALM      30.05F
ORR            FLURRIES  12   5  73 CALM      29.99F
COOK           FLURRIES  12   7  79 W7        30.01F WCI   2
WALKER         FAIR      14   6  70 W7        30.04F WCI   4
$$
MNZ012-019>021-037-271800-
   Northeast Minnesota

CITY           SKY/WX    TMP DP  RH WIND       PRES   REMARKS
DULUTH         MOSUNNY   18   9  68 NW14      29.98F WCI   4
ELY            FLURRIES  12   7  79 CALM      29.99F
HIBBING        CLOUDY    15   7  70 NW7       30.01F WCI   5
EVELETH        LGT SNOW  16  10  79 NW7       30.01F WCI   6
DULUTH HARBOR  SUNNY     21  12  68 W13       30.05S WCI   9
TWO HARBORS    MOSUNNY   21  12  68 NW9G16    29.97F WCI  11
GRAND MARAIS     N/A     23  15  71 N9G18     29.96F WCI  13
G MARAIS ARPRT CLOUDY    16  10  79 NW9       29.90F WCI   4
$$
MNZ029>031-032-039>041-046>048-054>057-064-271800-
   West Central Minnesota

CITY           SKY/WX    TMP DP  RH WIND       PRES   REMARKS
FERGUS FALLS   SUNNY     10   5  79 W6        30.16S WCI   1
WHEATON        SUNNY     12   7  79 SW3       30.16F
MORRIS         SUNNY     14   7  73 W6        30.12F WCI   5
ALEXANDRIA     SUNNY     13   5  70 NW7       30.09F WCI   3
ELBOW LAKE     FAIR      11   6  78 W5        30.12F WCI   3
WADENA         SUNNY     12   7  79 W7        30.07F WCI   2
GLENWOOD       SUNNY     12   3  67 W8        30.10F WCI   1
APPLETON       SUNNY     16   7  67 W5        30.16S WCI   9
BENSON         SUNNY     14   7  73 NW6       30.14F WCI   5
ORTONVILLE     SUNNY     12   3  67 W3        30.15S
MADISON        SUNNY     16   9  73 W5        30.17F WCI   9
WILLMAR        FAIR      14   7  73 CALM      30.14S
$$
MNZ033>034-036-042>043-049>051-058-059-271800-
   Central Minnesota

CITY           SKY/WX    TMP DP  RH WIND       PRES   REMARKS
ST CLOUD       SUNNY     23  14  68 NW13      30.08S WCI  11
SAUK CENTRE    FAIR      13   6  72 W9        30.10S WCI   1
PAYNESVILLE    SUNNY     13   9  83 W10       30.11S WCI   0
AITKIN         MOSUNNY   23  12  63 W6        30.03F WCI  16
PINE RIVER     SUNNY     16   9  73 W6        30.09F WCI   7
BRAINERD       SUNNY     18  10  71 NW8       30.06F WCI   8
STAPLES        SUNNY     14   9  79 W9        30.08F WCI   2
LONG PRAIRIE   FAIR      16  10  79 W8        30.09F WCI   5
LITTLE FALLS   SUNNY     19  12  73 W9        30.08F WCI   9
LITCHFIELD     SUNNY     18  14  86 W10       30.12R WCI   6
BUFFALO        MOSUNNY   23  15  73 NW8       30.10S WCI  14
MAPLE LAKE     MOSUNNY   23  18  80 NW10      30.10S WCI  12
$$
MNZ037-044-045-052-053-271800-
   East Central Minnesota

CITY           SKY/WX    TMP DP  RH WIND       PRES   REMARKS
PRINCETON      MOSUNNY   25  16  68 W7        30.07S WCI  17
MORA           PTSUNNY   21  14  73 N9        30.07S WCI  11
CAMBRIDGE      CLOUDY    25  16  68 NW10      30.06R WCI  15
RUSH CITY      CLOUDY    23  17  77 NW8       30.06S WCI  14
MOOSE LAKE     CLOUDY    21  14  73 NW7       30.02F WCI  13
HINCKLEY       CLOUDY    23  16  74 CALM      30.05S
CLOQUET        PTSUNNY   19  10  68 NW12G17   30.00F WCI   7
MCGREGOR       MOSUNNY   21  14  73 NW9       30.04F WCI  11
$$
MNZ071>073-080-081-089-090-097-098-271800-
   Southwest Minnesota

CITY           SKY/WX    TMP DP  RH WIND       PRES   REMARKS
MONTEVIDEO     SUNNY     16  12  86 NW8       30.17F WCI   5
GRANITE FALLS  SUNNY     12   6  75 W10       30.19R WCI  -1
CANBY          SUNNY     14   8  76 W5        30.17F WCI   6
MARSHALL       SUNNY     12   5  73 NW6       30.17S WCI   3
REDWOOD FALLS  SUNNY     13   6  74 W14       30.17R WCI  -2
OLIVIA         SUNNY     14   9  79 W12       30.15R WCI   0
PIPESTONE        N/A     12   9  85 W8        30.15R WCI   1
WINDOM         SUNNY     14   9  79 W13       30.15R WCI   0
WORTHINGTON    SUNNY     18 -27  12 W10       30.17R WCI   6
JACKSON        SUNNY     18   9  68 NW16      30.15R WCI   3
TRACY          SUNNY     14  10  82 NW7       30.17R WCI   4
SLAYTON        SUNNY     13   8  81 W8        30.16R WCI   2
$$
MNZ065>067-074>077-082>085-091>093-271800-
   South Central Minnesota

CITY           SKY/WX    TMP DP  RH WIND       PRES   REMARKS
MANKATO        CLOUDY    19  12  73 W16       30.12R WCI   5
NEW ULM        CLOUDY    16  10  79 W15       30.15R WCI   1
ST JAMES       MOSUNNY   16  10  79 W14       30.17R WCI   1
FAIRMONT       CLOUDY    18  10  73 NW16      30.15R WCI   3
GLENCOE        CLOUDY    22  18  84 NW10      30.11R WCI  11
FARIBAULT      CLOUDY    25  19  80 NW13      30.10R WCI  13
OWATONNA       SUNNY     21  18  86 NW13      30.08S WCI   9
WASECA         CLOUDY    21  18  86 W13       30.11R WCI   9
ALBERT LEA     CLOUDY    21  19  93 NW12      30.09S WCI   9
$$
MNZ078>079-086>088-094>096-271800-
   Southeast Minnesota

CITY           SKY/WX    TMP DP  RH WIND       PRES   REMARKS
ROCHESTER      CLOUDY    22  19  89 NW20      30.04R WCI   7
RED WING       PTSUNNY   27  21  80 NW9       30.06R WCI  17
STANTON        CLOUDY    25  19  78 NW15      30.07R WCI  13
DODGE CENTER   CLOUDY    21  19  93 NW12G18   30.05R WCI   9
WINONA         CLOUDY    30  27  86 NW7       30.05R WCI  23
AUSTIN         CLOUDY    21  19  93 NW13      30.08S WCI   9
PRESTON        CLOUDY    24  21  89 NW15      30.04F WCI  11
$$
ABBREVIATIONS USED IN REMARKS
   TC - TEMPERATURES IN CELSIUS
  WCI - WIND CHILL INDEX
   HX - HEAT INDEX
  VSB - VISIBILITY
$$


USA.gov is the U.S. government's official web portal to all federal, state and local government web resources and services.